Regional Weather Roundup
Issued by NWS

Home | Current Version | Previous Version | Graphics & Text | Print | Product List | Glossary On
Versions: 1 2 3 4 5 6 7 8 9 10 11 12 13 14 15 16 17 18 19 20 21 22 23 24 25 26 27 28 29 30 31 32 33 34 35 36 37 38 39 40 41 42 43 44 45 46 47 48 49 50
000
ASUS43 KMKX 200600
RWRWI

WISCONSIN REGIONAL WEATHER ROUNDUP
NATIONAL WEATHER SERVICE MILWAUKEE/SULLIVAN WI
100 AM CDT SUN APR 20 2014

NOTE: "FAIR" INDICATES FEW OR NO CLOUDS BELOW 12,000 FEET WITH NO
SIGNIFICANT WEATHER AND/OR OBSTRUCTIONS TO VISIBILITY.

WIZ001-002-006>008-014>016-023>028-200700-
NORTHWEST WISCONSIN

CITY           SKY/WX    TMP DP  RH WIND       PRES   REMARKS
SUPERIOR ARPT  FAIR      29  28  97 CALM      30.03S
ASHLAND        FAIR      43  41  93 SW6       30.02S
6HR MIN TEMP:  37; 6HR MAX TEMP:  46;

HAYWARD        CLOUDY    40  38  93 CALM      30.02S
6HR MIN TEMP:  40; 6HR MAX TEMP:  51;

SIREN          FAIR      37  35  94 CALM      30.01S
RICE LAKE      LGT RAIN  48  47  94 CALM      30.04F
LADYSMITH      LGT RAIN  51  46  81 SE5       30.06R
EAU CLAIRE     NOT AVBL
MENOMONIE      RAIN      55  44  65 SE5       30.02R
NEW RICHMOND   HVY RAIN  51  51 100 CALM      30.03R
OSCEOLA        LGT RAIN  50  49  97 CALM      30.04R
$$

WIZ003>005-009-010-017-018-200700-
NORTH CENTRAL WISCONSIN

CITY           SKY/WX    TMP DP  RH WIND       PRES   REMARKS
WOODRUFF       CLOUDY    49  40  70 S10       30.04F
RHINELANDER    CLOUDY    47  36  65 S7        30.08F
6HR MIN TEMP:  45; 6HR MAX TEMP:  49; 6HR PCP:  0.05;

EAGLE RIVER    CLOUDY    46  35  65 S7        30.06F
LAND O LAKES   CLOUDY    47  36  65 S8        30.06F
PHILLIPS       CLOUDY    51  40  66 S8        30.05R
TOMAHAWK       CLOUDY    47  37  68 CALM      30.07S
MEDFORD        CLOUDY    53  40  61 SE10      30.05F
MERRILL        CLOUDY    50  39  66 CALM      30.08F
$$

WIZ029-030-035-036-043>047-200700-
CENTRAL WISCONSIN

CITY           SKY/WX    TMP DP  RH WIND       PRES   REMARKS
WAUSAU         CLOUDY    55  36  48 S12       30.07F
6HR MIN TEMP:  53; 6HR MAX TEMP:  60; 6HR PCP: TRACE;

MOSINEE        MOCLDY    54  36  50 SE10      30.11S
MARSHFIELD     CLOUDY    55  39  54 S9        30.07S
6HR MIN TEMP:  55; 6HR MAX TEMP:  62; 6HR PCP: TRACE;

STEVENS POINT  CLOUDY    53  36  52 S7        30.11F
WAUPACA        MOCLDY    52  37  58 S6        30.13F
WAUTOMA        NOT AVBL
WISC RAPIDS    CLOUDY    60  34  37 S10       30.10F
6HR MIN TEMP:  59; 6HR MAX TEMP:  63;

CAMP DOUGLAS   NOT AVBL
$$

WIZ011>013-019>022-031-037>040-048>050-200700-
NORTHEAST WISCONSIN

CITY           SKY/WX    TMP DP  RH WIND       PRES   REMARKS
ANTIGO         CLOUDY    44  37  75 S8        30.11F
STURGEON BAY   CLOUDY    46  30  53 S17G25    30.17F
6HR MIN TEMP:  39; 6HR MAX TEMP:  46;

GREEN BAY      CLOUDY    51  38  60 S16       30.14F
6HR MIN TEMP:  46; 6HR MAX TEMP:  51;

MANITOWOC      NOT AVBL
APPLETON       CLOUDY    52  34  50 S17       30.15F
CLINTONVILLE   MOCLDY    50  37  62 S8        30.13F
OSHKOSH        CLOUDY    51  37  58 S12       30.14F
6HR MIN TEMP:  48; 6HR MAX TEMP:  56;

$$

WIZ032>034-041-042-053>061-200700-
SOUTHWEST WISCONSIN

CITY           SKY/WX    TMP DP  RH WIND       PRES   REMARKS
LA CROSSE      CLOUDY    62  39  42 S15       30.05F
6HR MIN TEMP:  62; 6HR MAX TEMP:  68;

SPARTA         FAIR      64  32  30 S16       30.08S
VIROQUA        CLOUDY    60  36  39 S14       30.10F
BOSCOBEL       MOCLDY    63  34  33 S9G21     30.12S
6HR MIN TEMP:  63; 6HR MAX TEMP:  69;

PRAIRIE DU CHI MOCLDY    64  33  31 SE7       30.10F
PLATTEVILLE    CLOUDY    56  37  47 SE9       30.16S
$$

WIZ056-057-062-063-064-067-068-200700-
SOUTH CENTRAL WISCONSIN

CITY           SKY/WX    TMP DP  RH WIND       PRES   REMARKS
BARABOO/DELLS  FAIR      56  33  42 S9        30.14S
LONE ROCK      NOT AVBL
WATERTOWN      FAIR      49  36  60 SE8       30.19S
MADISON        FAIR      53  39  59 S7        30.17S
6HR MIN TEMP:  53; 6HR MAX TEMP:  65;

MIDDLETON      FAIR      57  34  41 S9G17     30.17S
MONROE         FAIR      54  36  52 S14       30.18S
JANESVILLE     FAIR      48  36  61 SE7       30.19S
$$

WIZ051-052-058>065-066-070>072-200700-
SOUTHEAST WISCONSIN

CITY           SKY/WX    TMP DP  RH WIND       PRES   REMARKS
MILWAUKEE      FAIR      49  35  58 S10       30.23F
6HR MIN TEMP:  44; 6HR MAX TEMP:  50;

WAUKESHA       FAIR      45  34  65 S10       30.23S
MILWAUKEE/TIMM FAIR      46  34  61 S10       30.23S
RACINE         FAIR      49  34  56 S16G24    30.24F
6HR MIN TEMP:  44; 6HR MAX TEMP:  50;

BURLINGTON     FAIR      40  35  81 CALM      30.22S
KENOSHA        FAIR      51  35  54 S14       30.22F
6HR MIN TEMP:  41; 6HR MAX TEMP:  51;

FOND DU LAC    FAIR      52  36  54 S16       30.16F
6HR MIN TEMP:  50; 6HR MAX TEMP:  56;

SHEBOYGAN      FAIR      41  34  76 S8        30.20F
6HR MIN TEMP:  38; 6HR MAX TEMP:  46;

WEST BEND      FAIR      45  32  61 S3        30.21F
JUNEAU         FAIR      48  33  55 SE10      30.20S
$$

LSZ147-162-200700-
LAKE SUPERIOR

STATION/POSITION TIME  TEMP    WIND        PRES    WAVE
                       AIR SEA DIR/SP/G            HT/PER
                 (UTC) (F)     (DEG/KT/KT) (MB)    (FT/S)
DEVILS ISLAND    0500   34      CALM  / 58 1017.2F
PORT WING        0500   30     210/  2/  3 1016.6F
SAXON HARBOR     0540           CALM  /  2 1016.3F
$$

LMZ867-665-643>646-200700-
LAKE MICHIGAN

STATION/POSITION TIME  TEMP    WIND        PRES    WAVE
                       AIR SEA DIR/SP/G            HT/PER
                 (UTC) (F)     (DEG/KT/KT) (MB)    (FT/S)
NORTHPORT PIER   0500   37     140/ 10/ 11 1022.7F
SISTER BAY       0509   41     160/ 12/ 16   N/A
KEWAUNEE LAKESHO 0500   40     170/ 10/ 11 1023.0F
SHEBOYGAN LAKESH 0500   43     180/ 10/ 10 1024.1S
PORT WASHINGTON  0500   40      CALM  /  2 1024.4S
MILWAUKEE LAKESH 0500   42     170/  2/  3   N/A
KENOSHA   LAKESH 0500   46     180/ 15/ 18   N/A
$$

TC  - TEMPERATURE IN CELSIUS
VSB - VISIBILITY IN STATUTE MILES
WCI - WIND CHILL INDEX
HX  - HEAT INDEX




USA.gov is the U.S. government's official web portal to all federal, state and local government web resources and services.